Simultaneous Nadir Overpasses (SNOs) Predictions

Prediction of SNOs between GOES-15 and TERRA Satellite Orbit:

Table of predicted SNOs for the next 14.0 days since TLE Epoch: 6/1/2013
Index Date Time (GOES-15) GOES-15 Lat,Lon TERRA Lat,Lon Distance(km) Time Diff (sec)
1 06/02/2013 19:21:46 -0.09,-135.13 -0.62,-132.67 280.08 80
2 06/03/2013 07:43:10 0.07,-135.09 -0.52,-137.86 314.24 80
3 06/05/2013 07:28:19 0.08,-135.03 0.08,-134.90 15.34 80
4 06/07/2013 07:16:09 0.08,-134.97 0.75,-131.95 343.89 80
5 06/07/2013 19:40:04 -0.06,-134.97 0.39,-137.10 241.77 80
6 06/09/2013 19:25:13 -0.07,-134.91 -0.23,-134.14 86.43 80
7 06/11/2013 19:13:02 -0.08,-134.83 -0.85,-131.19 414.14 80
8 06/12/2013 07:37:06 0.06,-134.79 -0.27,-136.38 179.99 80
9 06/14/2013 07:22:15 0.07,-134.71 0.37,-133.43 147.13 80
10 06/14/2013 19:46:10 -0.05,-134.71 0.76,-138.57 439.65 80




NCC Satellite Simultaneous Nadir Overpasses (SNOs) Prediction Service
